This demonstration page uses our WeatherBlox Daily Observations layout. Learn more.

Left ArrowRight Arrow

39.08367, -84.50855

Hourly Observations for June 25, 2015

Temp ( °F °C ) Dew Point ( °F °C ) Humidity (%) Winds ( mph kmh ) Pressure ( in mb ) Visibility ( mi km ) Precip ( " mm )
12:53 am 00:53 Clear 64 17.8 62 16.7 93 93 N N/A 30.09 1019 10 16 N/A
1:53 am 01:53 Clear 65 18.3 62 16.7 90 90 N 3 6 30.07 1018 10 16 N/A
2:53 am 02:53 Clear 63 17.2 61 16.1 93 93 N N/A 30.06 1018 10 16 N/A
3:53 am 03:53 Clear 62 16.7 62 16.7 100 100 N N/A 30.05 1018 10 16 N/A
4:53 am 04:53 Clear 63 17.2 61 16.1 93 93 N N/A 30.04 1017 10 16 N/A
5:53 am 05:53 Mostly Cloudy 63 17.2 62 16.7 97 97 N N/A 30.05 1018 10 16 N/A
6:53 am 06:53 Mostly Cloudy 63 17.2 62 16.7 97 97 SSW 3 6 30.06 1018 10 16 N/A
7:53 am 07:53 Cloudy 66 18.9 63 17.2 90 90 N N/A 30.06 1018 10 16 N/A
8:53 am 08:53 Cloudy with Thunderstorms 68 20 61 16.1 78 78 N 8 13 30.12 1020 10 16 N/A
9:53 am 09:53 Cloudy with Thunderstorms 65 18.3 64 17.8 97 97 NW 7 11 30.17 1022 6 10 N/A
10:06 am 10:06 Cloudy with Thunderstorms 66 19 64 18 94 94 N N/A 30.15 1021 2 3 N/A
10:20 am 10:20 Cloudy with Thunderstorms 64 18 64 18 100 100 ESE 9 15 30.06 1018 3 5 N/A
10:37 am 10:37 Cloudy with Light Rain 65 18.3 65 18.3 100 100 E 6 9 30.03 1017 9 14 N/A
10:53 am 10:53 Partly Cloudy 66 18.9 66 18.9 100 100 SW 3 6 30.06 1018 10 16 N/A
11:53 am 11:53 Mostly Cloudy 68 20 68 20 100 100 SSE 6 9 30.06 1018 10 16 0.01 0.25
12:05 pm 12:05 Partly Cloudy 69 20.6 69 20.6 100 100 S 6 9 30.03 1017 10 16 N/A
12:53 pm 12:53 Mostly Cloudy 72 22.2 66 18.9 82 82 N N/A 30.04 1017 10 16 N/A
1:53 pm 13:53 Sunny 76 24.4 67 19.4 74 74 S 7 11 29.99 1016 10 16 N/A
2:53 pm 14:53 Sunny 80 26.7 69 20.6 69 69 S 13 20 29.98 1015 10 16 N/A
3:53 pm 15:53 Mostly Cloudy 80 26.7 69 20.6 69 69 SW 6 9 29.97 1015 10 16 N/A
4:53 pm 16:53 Partly Cloudy 82 27.8 67 19.4 60 60 W 12 19 29.96 1015 10 16 N/A
5:53 pm 17:53 Mostly Cloudy 83 28.3 68 20 61 61 SW 9 15 29.94 1014 10 16 N/A
6:53 pm 18:53 Mostly Cloudy 83 28.3 69 20.6 63 63 WSW 5 7 29.93 1014 10 16 N/A
7:53 pm 19:53 Mostly Cloudy 81 27.2 68 20 65 65 NW 6 9 29.92 1013 10 16 N/A
8:53 pm 20:53 Cloudy 80 26.7 67 19.4 64 64 NW 3 6 29.93 1014 10 16 N/A
9:53 pm 21:53 Mostly Cloudy 74 23.3 70 21.1 88 88 N N/A 29.93 1014 10 16 N/A
10:53 pm 22:53 Cloudy 74 23.3 69 20.6 85 85 N N/A 29.95 1014 10 16 N/A
11:53 pm 23:53 Mostly Clear 72 22.2 69 20.6 91 91 N N/A 29.93 1014 10 16 N/A

Powered by AerisWeather